AUA603 LOWW-LDZA

Flight info

Callsign AUA603
Flight time 0h 35m
Altitude 23000
Route STEIN DCT NOHAT DCT NEKIN
Aircraft A320/M-SDE3FGHIRWY/LB1

Departure

Time 2026-04-26 18:52
Airport Vienna International Airport (LOWW)

Arrival

Time 2026-04-26 19:27
Airport Zagreb Franjo Tuđman International Airport (LDZA)
Time Latitude Longitude Altitude Speed Heading
2026-04-26 18:24 48.12018 16.55609 599 ft 0 kts 112°
2026-04-26 18:44 48.12024 16.55590 599 ft 4 kts 114°
2026-04-26 18:44 48.12036 16.55555 599 ft 4 kts 130°
2026-04-26 18:44 48.12053 16.55537 598 ft 3 kts 197°
2026-04-26 18:44 48.12057 16.55539 598 ft 1 kts 205°
2026-04-26 18:46 48.12053 16.55536 598 ft 5 kts 205°
2026-04-26 18:47 48.12016 16.55510 601 ft 3 kts 205°
2026-04-26 18:47 48.11971 16.55477 603 ft 16 kts 206°
2026-04-26 18:47 48.11855 16.55426 607 ft 18 kts 189°
2026-04-26 18:47 48.11767 16.55560 620 ft 21 kts 115°
2026-04-26 18:48 48.11706 16.55750 616 ft 20 kts 115°
2026-04-26 18:48 48.11646 16.55934 619 ft 19 kts 117°
2026-04-26 18:48 48.11586 16.56112 622 ft 20 kts 116°
2026-04-26 18:48 48.11524 16.56310 624 ft 23 kts 115°
2026-04-26 18:49 48.11447 16.56542 624 ft 25 kts 116°
2026-04-26 18:49 48.11374 16.56768 618 ft 24 kts 116°
2026-04-26 18:49 48.11304 16.56984 623 ft 23 kts 116°
2026-04-26 18:49 48.11236 16.57199 627 ft 22 kts 115°
2026-04-26 18:50 48.11167 16.57403 618 ft 23 kts 117°
2026-04-26 18:50 48.11104 16.57601 621 ft 18 kts 119°
2026-04-26 18:50 48.11011 16.57622 618 ft 13 kts 202°
2026-04-26 18:50 48.10942 16.57541 629 ft 20 kts 243°
2026-04-26 18:51 48.10983 16.57330 626 ft 28 kts 298°
2026-04-26 18:51 48.11174 16.56743 629 ft 96 kts 296°
2026-04-26 18:51 48.11553 16.55573 621 ft 150 kts 296°
2026-04-26 18:51 48.12048 16.54023 886 ft 170 kts 296°
2026-04-26 18:52 48.12358 16.52255 1356 ft 189 kts 265°
2026-04-26 18:52 48.12053 16.50979 1550 ft 208 kts 233°
2026-04-26 18:52 48.10451 16.49053 2014 ft 239 kts 211°
2026-04-26 18:52 48.08927 16.47768 2426 ft 263 kts 206°
2026-04-26 18:53 48.07108 16.47200 3130 ft 271 kts 175°
2026-04-26 18:53 48.05254 16.47644 3974 ft 275 kts 169°
2026-04-26 18:53 48.03341 16.48084 4828 ft 280 kts 173°
2026-04-26 18:53 48.01387 16.48457 5657 ft 284 kts 175°
2026-04-26 18:54 47.99430 16.48797 6500 ft 287 kts 178°
2026-04-26 18:54 47.97436 16.48785 7262 ft 286 kts 193°
2026-04-26 18:54 47.95451 16.48307 8053 ft 292 kts 187°
2026-04-26 18:54 47.94094 16.48382 8572 ft 297 kts 179°
2026-04-26 18:55 47.91336 16.48969 9640 ft 304 kts 174°
2026-04-26 18:55 47.89944 16.49350 10163 ft 307 kts 173°
2026-04-26 18:55 47.87768 16.49956 10477 ft 328 kts 173°
2026-04-26 18:55 47.85439 16.50574 10673 ft 351 kts 173°
2026-04-26 18:56 47.82962 16.51188 11039 ft 366 kts 174°
2026-04-26 18:56 47.80424 16.51781 11675 ft 371 kts 174°
2026-04-26 18:56 47.77856 16.52355 12357 ft 375 kts 174°
2026-04-26 18:56 47.75282 16.52913 13029 ft 379 kts 174°
2026-04-26 18:57 47.72646 16.53480 13699 ft 383 kts 174°
2026-04-26 18:57 47.70889 16.53858 14122 ft 386 kts 174°
2026-04-26 18:57 47.67306 16.54633 14916 ft 390 kts 174°
2026-04-26 18:57 47.64632 16.55217 15521 ft 393 kts 174°
2026-04-26 18:58 47.61898 16.55816 16117 ft 396 kts 174°
2026-04-26 18:58 47.59160 16.56404 16719 ft 398 kts 174°
2026-04-26 18:58 47.56398 16.56874 17334 ft 400 kts 176°
2026-04-26 18:58 47.53642 16.57228 17930 ft 402 kts 178°
2026-04-26 18:59 47.50831 16.57529 18528 ft 405 kts 178°
2026-04-26 18:59 47.48004 16.57811 19050 ft 407 kts 178°
2026-04-26 18:59 47.45168 16.58100 19587 ft 410 kts 178°
2026-04-26 18:59 47.42349 16.58402 20148 ft 410 kts 178°
2026-04-26 19:00 47.39489 16.58729 20749 ft 411 kts 178°
2026-04-26 19:00 47.36616 16.59073 21281 ft 413 kts 178°
2026-04-26 19:00 47.33736 16.59429 21789 ft 415 kts 178°
2026-04-26 19:00 47.30882 16.59781 22272 ft 418 kts 178°
2026-04-26 19:01 47.27966 16.60133 22763 ft 420 kts 178°
2026-04-26 19:01 47.25031 16.60480 23153 ft 422 kts 178°
2026-04-26 19:01 47.22126 16.60820 23220 ft 423 kts 178°
2026-04-26 19:01 47.19180 16.61167 23244 ft 423 kts 178°
2026-04-26 19:02 47.16233 16.61517 23241 ft 423 kts 178°
2026-04-26 19:02 47.13337 16.61859 23246 ft 423 kts 178°
2026-04-26 19:02 47.10392 16.62205 23244 ft 423 kts 178°
2026-04-26 19:02 47.08442 16.62434 23237 ft 423 kts 178°
2026-04-26 19:03 47.04539 16.62899 23250 ft 423 kts 178°
2026-04-26 19:03 47.01615 16.63249 23101 ft 415 kts 178°
2026-04-26 19:03 46.98787 16.63587 22636 ft 409 kts 178°
2026-04-26 19:03 46.95945 16.63922 22362 ft 407 kts 178°
2026-04-26 19:04 46.93116 16.64249 22118 ft 407 kts 178°
2026-04-26 19:04 46.90327 16.64570 21821 ft 405 kts 178°
2026-04-26 19:04 46.87506 16.64899 21536 ft 404 kts 178°
2026-04-26 19:04 46.84713 16.65225 21110 ft 401 kts 178°
2026-04-26 19:05 46.79206 16.65874 20131 ft 396 kts 178°
2026-04-26 19:05 46.76451 16.66198 19530 ft 397 kts 178°
2026-04-26 19:05 46.73678 16.66519 18773 ft 402 kts 177°
2026-04-26 19:06 46.70864 16.66841 18038 ft 406 kts 177°
2026-04-26 19:06 46.68047 16.67165 17378 ft 406 kts 177°
2026-04-26 19:06 46.65256 16.67491 16739 ft 407 kts 177°
2026-04-26 19:06 46.62438 16.67820 16106 ft 407 kts 177°
2026-04-26 19:07 46.59601 16.68005 15487 ft 401 kts 186°
2026-04-26 19:07 46.56985 16.67219 15255 ft 378 kts 202°
2026-04-26 19:07 46.54677 16.65516 15235 ft 368 kts 217°
2026-04-26 19:07 46.52623 16.63290 15238 ft 367 kts 219°
2026-04-26 19:08 46.50593 16.61037 15240 ft 366 kts 220°
2026-04-26 19:08 46.48569 16.58771 15236 ft 366 kts 220°
2026-04-26 19:08 46.46579 16.56535 15237 ft 366 kts 220°
2026-04-26 19:08 46.44557 16.54259 15235 ft 366 kts 220°
2026-04-26 19:09 46.42540 16.51992 15239 ft 366 kts 220°
2026-04-26 19:09 46.40521 16.49732 15239 ft 366 kts 220°
2026-04-26 19:09 46.38491 16.47475 15232 ft 366 kts 219°
2026-04-26 19:09 46.36491 16.45255 15239 ft 366 kts 219°
2026-04-26 19:10 46.34472 16.43015 15233 ft 366 kts 219°
2026-04-26 19:10 46.32442 16.40765 15234 ft 366 kts 219°
2026-04-26 19:10 46.30442 16.38546 15234 ft 365 kts 219°
2026-04-26 19:10 46.28423 16.36305 15231 ft 365 kts 219°
2026-04-26 19:11 46.26404 16.34066 15232 ft 365 kts 219°
2026-04-26 19:11 46.24380 16.31823 15231 ft 365 kts 219°
2026-04-26 19:11 46.22356 16.29581 15231 ft 365 kts 219°
2026-04-26 19:11 46.20362 16.27381 15226 ft 365 kts 219°
2026-04-26 19:12 46.18337 16.25151 15227 ft 365 kts 218°
2026-04-26 19:12 46.16317 16.22926 15228 ft 365 kts 219°
2026-04-26 19:12 46.14289 16.20693 15226 ft 365 kts 219°
2026-04-26 19:12 46.12270 16.18471 15226 ft 365 kts 219°
2026-04-26 19:13 46.10275 16.16276 15226 ft 365 kts 219°
2026-04-26 19:13 46.08245 16.14046 15225 ft 365 kts 220°
2026-04-26 19:13 46.06247 16.11855 15219 ft 365 kts 219°
2026-04-26 19:13 46.04224 16.09637 15220 ft 364 kts 219°
2026-04-26 19:14 46.02209 16.07432 14865 ft 361 kts 219°
2026-04-26 19:14 46.00210 16.05247 14416 ft 359 kts 218°
2026-04-26 19:14 45.98247 16.03101 13973 ft 357 kts 219°
2026-04-26 19:14 45.96912 16.01642 13669 ft 355 kts 218°
2026-04-26 19:15 45.94308 15.98802 13071 ft 351 kts 218°
2026-04-26 19:15 45.92368 15.96688 12633 ft 347 kts 218°
2026-04-26 19:15 45.90454 15.94603 12188 ft 344 kts 219°
2026-04-26 19:15 45.88571 15.92551 11727 ft 342 kts 218°
2026-04-26 19:16 45.86697 15.90511 11564 ft 330 kts 218°
2026-04-26 19:16 45.84888 15.88545 11396 ft 320 kts 220°
2026-04-26 19:16 45.83116 15.86621 11000 ft 318 kts 220°
2026-04-26 19:16 45.81352 15.84707 10608 ft 317 kts 220°
2026-04-26 19:17 45.79618 15.82827 10225 ft 311 kts 219°
2026-04-26 19:17 45.77930 15.81005 9989 ft 292 kts 219°
2026-04-26 19:17 45.76337 15.79287 9580 ft 281 kts 219°
2026-04-26 19:17 45.74811 15.77637 9044 ft 277 kts 220°
2026-04-26 19:18 45.73283 15.75983 8488 ft 272 kts 219°
2026-04-26 19:18 45.71790 15.74366 7946 ft 266 kts 219°
2026-04-26 19:18 45.70323 15.72778 7390 ft 261 kts 218°
2026-04-26 19:18 45.68974 15.71104 6833 ft 256 kts 227°
2026-04-26 19:19 45.67753 15.69251 6232 ft 256 kts 226°
2026-04-26 19:19 45.66502 15.67447 5857 ft 253 kts 217°
2026-04-26 19:19 45.64948 15.66451 5501 ft 246 kts 186°
2026-04-26 19:19 45.63304 15.66755 5316 ft 235 kts 155°
2026-04-26 19:20 45.62009 15.68100 5127 ft 227 kts 138°
2026-04-26 19:20 45.61269 15.69146 4954 ft 224 kts 135°
2026-04-26 19:20 45.59824 15.71247 4473 ft 223 kts 134°
2026-04-26 19:20 45.58900 15.73004 4105 ft 221 kts 110°
2026-04-26 19:21 45.58733 15.75126 3951 ft 210 kts 88°
2026-04-26 19:21 45.58846 15.77138 3827 ft 200 kts 85°
2026-04-26 19:21 45.58993 15.79108 3585 ft 199 kts 84°
2026-04-26 19:21 45.59122 15.81059 3349 ft 196 kts 85°
2026-04-26 19:22 45.59247 15.82978 3089 ft 193 kts 80°
2026-04-26 19:22 45.59728 15.84740 2982 ft 189 kts 57°
2026-04-26 19:22 45.60587 15.86126 2983 ft 185 kts 50°
2026-04-26 19:22 45.61449 15.87424 3015 ft 179 kts 50°
2026-04-26 19:23 45.62297 15.88704 2991 ft 174 kts 50°
2026-04-26 19:23 45.63126 15.89957 2986 ft 174 kts 50°
2026-04-26 19:23 45.63947 15.91197 2915 ft 172 kts 49°
2026-04-26 19:23 45.64752 15.92413 2739 ft 165 kts 50°
2026-04-26 19:24 45.65528 15.93585 2539 ft 160 kts 49°
2026-04-26 19:24 45.66281 15.94724 2355 ft 149 kts 50°
2026-04-26 19:24 45.67599 15.96720 1969 ft 133 kts 50°
2026-04-26 19:25 45.68229 15.97684 1808 ft 133 kts 49°
2026-04-26 19:25 45.68641 15.98328 1697 ft 132 kts 49°
2026-04-26 19:25 45.69486 15.99614 1396 ft 133 kts 46°
2026-04-26 19:25 45.70133 16.00549 1208 ft 132 kts 47°
2026-04-26 19:26 45.70785 16.01510 1028 ft 134 kts 47°
2026-04-26 19:26 45.71397 16.02458 854 ft 132 kts 47°
2026-04-26 19:26 45.72043 16.03455 744 ft 135 kts 45°
2026-04-26 19:26 45.72665 16.04398 572 ft 128 kts 46°
2026-04-26 19:27 45.73287 16.05347 399 ft 132 kts 46°
2026-04-26 19:27 45.73822 16.06161 365 ft 77 kts 47°
2026-04-26 19:27 45.74148 16.06659 360 ft 64 kts 45°
2026-04-26 19:27 45.74419 16.07064 362 ft 48 kts 46°
2026-04-26 19:28 45.74604 16.07348 362 ft 32 kts 49°
2026-04-26 19:28 45.74663 16.07534 359 ft 15 kts 133°
2026-04-26 19:28 45.74583 16.07635 354 ft 13 kts 142°
2026-04-26 19:28 45.74516 16.07602 355 ft 9 kts 225°
2026-04-26 19:29 45.74480 16.07555 357 ft 6 kts 226°
2026-04-26 19:29 45.74451 16.07504 355 ft 14 kts 230°
2026-04-26 19:29 45.74347 16.07351 358 ft 20 kts 225°
2026-04-26 19:29 45.74255 16.07221 363 ft 17 kts 211°
2026-04-26 19:30 45.74160 16.07274 360 ft 16 kts 133°
2026-04-26 19:30 45.74078 16.07388 354 ft 15 kts 136°
2026-04-26 19:30 45.74091 16.07512 355 ft 15 kts 48°
2026-04-26 19:30 45.74138 16.07586 354 ft 16 kts 46°
2026-04-26 19:31 45.74243 16.07742 360 ft 15 kts 47°
2026-04-26 19:31 45.74309 16.07840 357 ft 8 kts 45°
2026-04-26 19:31 45.74340 16.07883 362 ft 6 kts 44°
2026-04-26 19:31 45.74341 16.07928 361 ft 3 kts 103°
2026-04-26 19:32 45.74321 16.07963 368 ft 4 kts 138°
2026-04-26 19:32 45.74309 16.07979 363 ft 3 kts 137°
2026-04-26 19:32 45.74297 16.07995 362 ft 0 kts 137°